TimeEST,TemperatureF,Dew PointF,Humidity,Sea Level PressureIn,VisibilityMPH,Wind Direction,Wind SpeedMPH,Gust SpeedMPH,PrecipitationIn,Events,Conditions,WindDirDegrees,DateUTC
12:53 AM,34.0,28.0,79,30.18,10.0,ENE,4.6,-,N/A,,Overcast,60,2012-12-09 05:53:00
1:53 AM,34.0,30.0,85,30.19,10.0,ENE,4.6,-,N/A,,Overcast,60,2012-12-09 06:53:00
2:02 AM,33.8,28.4,81,30.16,10.0,East,4.6,-,N/A,,Overcast,100,2012-12-09 07:02:00
2:12 AM,33.8,28.4,81,30.16,10.0,East,5.8,-,N/A,,Overcast,80,2012-12-09 07:12:00
2:53 AM,34.0,28.0,79,30.17,10.0,ENE,5.8,-,N/A,,Overcast,60,2012-12-09 07:53:00
3:53 AM,34.0,28.0,79,30.18,10.0,East,5.8,-,N/A,,Overcast,80,2012-12-09 08:53:00
4:01 AM,33.8,28.4,81,30.15,10.0,East,4.6,-,N/A,,Overcast,80,2012-12-09 09:01:00
4:44 AM,33.8,28.4,81,30.14,10.0,East,6.9,-,N/A,,Overcast,80,2012-12-09 09:44:00
4:53 AM,34.0,28.9,82,30.16,10.0,ENE,6.9,-,N/A,,Overcast,70,2012-12-09 09:53:00
5:01 AM,33.8,28.4,81,30.15,10.0,ENE,3.5,-,N/A,,Overcast,60,2012-12-09 10:01:00
5:41 AM,33.8,28.4,81,30.15,10.0,East,4.6,-,N/A,,Overcast,80,2012-12-09 10:41:00
5:53 AM,33.1,28.9,85,30.18,10.0,ENE,6.9,-,N/A,,Overcast,60,2012-12-09 10:53:00
6:53 AM,34.0,28.0,79,30.17,10.0,East,8.1,-,N/A,,Overcast,100,2012-12-09 11:53:00
7:41 AM,35.6,26.6,70,30.13,10.0,East,9.2,-,N/A,,Overcast,80,2012-12-09 12:41:00
7:53 AM,35.1,27.0,72,30.15,10.0,East,8.1,-,N/A,,Overcast,80,2012-12-09 12:53:00
8:08 AM,35.6,26.6,70,30.12,10.0,East,8.1,-,N/A,,Overcast,80,2012-12-09 13:08:00
8:53 AM,35.1,28.0,76,30.13,10.0,East,10.4,-,N/A,,Overcast,80,2012-12-09 13:53:00
9:05 AM,35.6,28.4,75,30.09,10.0,East,11.5,20.7,N/A,,Overcast,90,2012-12-09 14:05:00
9:53 AM,36.0,30.0,79,30.10,10.0,East,12.7,18.4,N/A,,Overcast,90,2012-12-09 14:53:00
10:20 AM,37.4,30.2,75,30.06,10.0,East,13.8,20.7,N/A,,Overcast,100,2012-12-09 15:20:00
10:53 AM,37.0,30.9,79,30.08,10.0,East,10.4,18.4,N/A,,Overcast,90,2012-12-09 15:53:00
11:53 AM,37.9,32.0,79,30.03,10.0,East,9.2,-,N/A,,Overcast,90,2012-12-09 16:53:00
12:06 PM,37.4,32.0,81,29.99,10.0,East,10.4,18.4,N/A,,Overcast,90,2012-12-09 17:06:00
12:53 PM,37.0,34.0,89,29.98,4.0,East,8.1,-,0.02,Rain,Light Rain,90,2012-12-09 17:53:00
1:11 PM,37.4,35.6,93,29.95,2.5,ENE,8.1,-,0.02,Rain,Light Rain,70,2012-12-09 18:11:00
1:26 PM,37.4,35.6,93,29.93,2.0,East,9.2,-,0.03,Rain,Light Rain,80,2012-12-09 18:26:00
1:38 PM,37.4,35.6,93,29.92,3.0,East,11.5,17.3,0.04,Rain,Light Rain,80,2012-12-09 18:38:00
1:53 PM,37.9,36.0,93,29.93,4.0,East,8.1,-,0.04,,Overcast,90,2012-12-09 18:53:00
2:53 PM,37.9,36.0,93,29.88,9.0,East,10.4,20.7,0.00,,Overcast,100,2012-12-09 19:53:00
3:45 PM,35.6,35.6,100,29.84,5.0,East,12.7,-,0.01,,Overcast,100,2012-12-09 20:45:00
3:53 PM,36.0,35.1,97,29.86,6.0,East,12.7,20.7,0.01,,Overcast,100,2012-12-09 20:53:00
4:53 PM,36.0,35.1,97,29.85,6.0,ENE,5.8,-,0.00,,Overcast,70,2012-12-09 21:53:00
5:53 PM,36.0,34.0,93,29.83,2.5,NE,6.9,-,N/A,,Overcast,40,2012-12-09 22:53:00
6:08 PM,35.6,33.8,93,29.79,1.5,ENE,3.5,-,0.00,Snow,Light Snow,60,2012-12-09 23:08:00
6:17 PM,35.6,33.8,93,29.77,1.8,East,8.1,-,0.00,,Overcast,80,2012-12-09 23:17:00
6:53 PM,34.0,33.1,96,29.80,2.0,North,4.6,-,0.00,,Overcast,360,2012-12-09 23:53:00
7:16 PM,33.8,33.8,100,29.76,1.8,ENE,4.6,-,N/A,,Overcast,70,2012-12-10 00:16:00
7:26 PM,33.8,33.8,100,29.75,2.0,ENE,5.8,-,N/A,,Overcast,60,2012-12-10 00:26:00
7:36 PM,33.8,33.8,100,29.75,1.8,Calm,Calm,-,N/A,,Overcast,0,2012-12-10 00:36:00
7:53 PM,34.0,34.0,100,29.76,1.2,Variable,3.5,-,N/A,,Overcast,0,2012-12-10 00:53:00
8:07 PM,33.8,33.8,100,29.73,1.5,East,3.5,-,0.01,,Overcast,80,2012-12-10 01:07:00
8:48 PM,35.6,33.8,93,29.71,2.0,Calm,Calm,-,0.01,,Overcast,0,2012-12-10 01:48:00
8:53 PM,35.1,34.0,96,29.73,2.0,Calm,Calm,-,0.01,,Overcast,0,2012-12-10 01:53:00
9:11 PM,35.6,33.8,93,29.70,1.8,Calm,Calm,-,N/A,,Overcast,0,2012-12-10 02:11:00
9:53 PM,35.1,35.1,100,29.70,1.5,Calm,Calm,-,N/A,,Overcast,0,2012-12-10 02:53:00
10:00 PM,35.6,35.6,100,29.69,1.2,Calm,Calm,-,N/A,,Overcast,0,2012-12-10 03:00:00
10:17 PM,35.6,35.6,100,29.67,0.8,Calm,Calm,-,N/A,,Overcast,0,2012-12-10 03:17:00
10:53 PM,36.0,35.1,97,29.67,0.2,Calm,Calm,-,N/A,Fog,Fog,0,2012-12-10 03:53:00
11:53 PM,36.0,36.0,100,29.65,0.2,North,3.5,-,0.00,Fog,Fog,10,2012-12-10 04:53:00